Rugby, ND

3:06 AM CST on December 11, 2019 (GMT -0600)
Rugby Municipal

Weather History for KRUG - October, 2019

Change the Weather History Date:

Tuesday, October 22, 2019

  Actual Average Record
Temperature  
Mean Temperature 32 °F -  
Max Temperature 39 °F 53 °F 80 °F (1989)
Min Temperature 24 °F 29 °F 15 °F (1951)
Degree Days  
Heating Degree Days 34    
Moisture  
Dew Point 26 °F    
Average Humidity 93    
Maximum Humidity 100    
Minimum Humidity 61    
Precipitation  
Precipitation 0.00 in - - ()
Sea Level Pressure  
Sea Level Pressure 29.84 in    
Wind  
Wind Speed 12 mph (NW)    
Max Wind Speed 23 mph    
Max Gust Speed 29 mph    
Visibility 10 miles    
Events      
Averages and records for this station are not official NWS values.
T = Trace of Precipitation, MM = Missing Value Source: NWS Daily Summary

Daily Weather History Graph

Daily Weather History Graph

Search for Another Location

Airport or City:

Astronomy

Oct. 22, 2019 Rise Set
Actual Time 8:10 AM CDT 6:38 PM CDT
Civil Twilight 7:38 AM CDT 7:10 PM CDT
Nautical Twilight 7:01 AM CDT 7:46 PM CDT
Astronomical Twilight 6:25 AM CDT 8:22 PM CDT
Moon 12:42 AM CDT (10/22) 4:25 PM CDT (10/22)
Length of Visible Light 11h 31m
Length of Day
10h 27m
Last Quarter, 37% of the Moon is Illuminated
Oct 22
Last Quarter
Oct 27
New
Nov 4
First Quarter
Nov 12
Full
Nov 19
Last Quarter

Hourly Weather History & Observations

Time (CDT) Temp. Windchill Dew Point Humidity Pressure Visibility Wind Dir Wind Speed Gust Speed Precip Events Conditions
12:15 AM 30.2 °F 20.8 °F 28.4 °F 93% 29.87 in 10.0 mi NW 11.5 mph - N/A   Clear
12:35 AM 28.4 °F 18.5 °F 26.6 °F 93% 29.87 in 10.0 mi NW 11.5 mph - N/A   Clear
12:55 AM 30.2 °F 20.2 °F 28.4 °F 93% 29.86 in 10.0 mi NW 12.7 mph - N/A   Unknown
1:15 AM 30.2 °F 20.2 °F 28.4 °F 93% 29.86 in 10.0 mi NW 12.7 mph - N/A   Clear
1:35 AM 28.4 °F 18.0 °F 28.4 °F 100% 29.86 in 10.0 mi NW 12.7 mph - N/A   Clear
1:55 AM 28.4 °F 18.0 °F 26.6 °F 93% 29.86 in 10.0 mi WNW 12.7 mph - N/A   Clear
2:15 AM 26.6 °F 16.8 °F 26.6 °F 100% 29.86 in 10.0 mi NW 10.4 mph - N/A   Clear
2:35 AM 26.6 °F 16.8 °F 26.6 °F 100% 29.86 in 10.0 mi NW 10.4 mph - N/A   Clear
2:55 AM 26.6 °F 17.5 °F 26.6 °F 100% 29.86 in 10.0 mi WNW 9.2 mph - N/A   Clear
3:15 AM 26.6 °F 17.5 °F 26.6 °F 100% 29.86 in 10.0 mi WNW 9.2 mph - N/A   Clear
3:35 AM 26.6 °F 16.2 °F 26.6 °F 100% 29.86 in 10.0 mi NW 11.5 mph - N/A   Clear
3:55 AM 26.6 °F 16.8 °F 26.6 °F 100% 29.85 in 10.0 mi NW 10.4 mph - N/A   Clear
4:15 AM 26.6 °F 15.7 °F 26.6 °F 100% 29.85 in 10.0 mi NW 12.7 mph - N/A   Clear
4:35 AM 26.6 °F 15.7 °F 26.6 °F 100% 29.84 in 10.0 mi NW 12.7 mph - N/A   Clear
4:55 AM 26.6 °F 16.2 °F 26.6 °F 100% 29.84 in 10.0 mi NW 11.5 mph - N/A   Clear
5:15 AM 26.6 °F 16.2 °F 26.6 °F 100% 29.84 in 10.0 mi WNW 11.5 mph - N/A   Clear
5:35 AM 26.6 °F 16.2 °F 26.6 °F 100% 29.84 in 10.0 mi WNW 11.5 mph - N/A   Clear
5:55 AM 26.6 °F 15.7 °F 26.6 °F 100% 29.84 in 10.0 mi NW 12.7 mph - N/A   Clear
6:15 AM 24.8 °F 14.6 °F 24.8 °F 100% 29.84 in 10.0 mi NW 10.4 mph - N/A   Clear
6:35 AM 24.8 °F 14.6 °F 24.8 °F 100% 29.84 in 10.0 mi WNW 10.4 mph - N/A   Clear
6:55 AM 26.6 °F 16.2 °F 26.6 °F 100% 29.84 in 10.0 mi WNW 11.5 mph - N/A   Scattered Clouds
7:35 AM 26.6 °F 16.2 °F 26.6 °F 100% 29.83 in 10.0 mi WNW 11.5 mph - N/A   Unknown
7:55 AM 24.8 °F 14.0 °F 24.8 °F 100% 29.83 in 10.0 mi NW 11.5 mph - N/A   Clear
8:15 AM 24.8 °F 14.6 °F 24.8 °F 100% 29.83 in 10.0 mi WNW 10.4 mph - N/A   Clear
8:35 AM - - - N/A% 29.83 in 10.0 mi WNW 11.5 mph - N/A   Clear
8:55 AM 26.6 °F 16.2 °F 26.6 °F 100% 29.83 in 10.0 mi WNW 11.5 mph - N/A   Clear
9:15 AM 28.4 °F 18.5 °F 28.4 °F 100% 29.83 in 10.0 mi NW 11.5 mph - N/A   Partly Cloudy
12:35 PM 39.2 °F 28.7 °F 26.6 °F 61% 29.79 in 10.0 mi NNW 23.0 mph - N/A   Clear
12:55 PM 39.2 °F 29.6 °F 26.6 °F 61% 29.79 in 10.0 mi NNW 19.6 mph 27.6 mph N/A   Clear
1:15 PM 39.2 °F 29.6 °F 26.6 °F 61% 29.79 in 10.0 mi NNW 19.6 mph - N/A   Clear
1:35 PM 39.2 °F 28.7 °F 26.6 °F 61% 29.79 in 10.0 mi NW 23.0 mph 28.8 mph N/A   Clear
10:15 PM 26.6 °F 19.1 °F 23.0 °F 86% 29.77 in 10.0 mi North 6.9 mph - N/A   Clear
10:35 PM 26.6 °F 21.2 °F 23.0 °F 86% 29.78 in 10.0 mi NNW 4.6 mph - N/A   Clear